Dallas/Ft Worth, TX

7:34 PM CST on November 17, 2019 (GMT -0600)
Dallas-Fort Worth International

Weather History for KDFW - September, 2019

Change the Weather History Date:

Saturday, September 21, 2019

  Actual Average Record
Temperature  
Mean Temperature 86 °F 76 °F  
Max Temperature 93 °F 86 °F 99 °F (1956)
Min Temperature 77 °F 65 °F 45 °F (1983)
Degree Days  
Heating Degree Days 0 0  
Month to date heating degree days 0 0  
Since 1 July heating degree days 0 0  
Cooling Degree Days 20 11  
Month to date cooling degree days 434 308  
Year to date cooling degree days 2636 2490  
Growing Degree Days 36 (Base 50)    
Moisture  
Dew Point 69 °F    
Average Humidity 65    
Maximum Humidity 84    
Minimum Humidity 41    
Precipitation  
Precipitation 0.00 in 0.07 in 6.38 in (1900)
Month to date precipitation T 1.85  
Year to date precipitation 27.13 25.96  
Sea Level Pressure  
Sea Level Pressure 29.98 in    
Wind  
Wind Speed 14 mph ()    
Max Wind Speed 23 mph    
Max Gust Speed 29 mph    
Visibility 10.0 miles    
Events      
T = Trace of Precipitation, MM = Missing Value Source: Averaged Metar Reports

Daily Weather History Graph

Daily Weather History Graph

Search for Another Location

Airport or City:

Astronomy

Sep. 21, 2019 Rise Set
Actual Time 7:15 AM CDT 7:26 PM CDT
Civil Twilight 6:50 AM CDT 7:51 PM CDT
Nautical Twilight 6:22 AM CDT 8:19 PM CDT
Astronomical Twilight 5:52 AM CDT 8:48 PM CDT
Moon No Moon Rise 2:02 PM CDT (9/21)
Length of Visible Light 13h 00m
Length of Day
12h 10m
Waning Gibbous, 54% of the Moon is Illuminated
Sep 21
Waning Gibbous
Sep 21
Last Quarter
Sep 28
New
Oct 5
First Quarter
Oct 13
Full

Hourly Weather History & Observations

Time (CDT) Temp. Heat Index Dew Point Humidity Pressure Visibility Wind Dir Wind Speed Gust Speed Precip Events Conditions
12:53 AM 80.1 °F 82.9 °F 69.1 °F 69% 29.98 in 10.0 mi South 18.4 mph 24.2 mph N/A   Mostly Cloudy
1:53 AM 78.1 °F - 69.1 °F 74% 29.98 in 10.0 mi South 16.1 mph 23.0 mph N/A   Mostly Cloudy
2:40 AM 78.1 °F - 70.0 °F 76% 30.00 in 10.0 mi South 15.0 mph - N/A   Overcast
2:53 AM 77.0 °F - 70.0 °F 79% 29.97 in 10.0 mi South 16.1 mph - N/A   Overcast
3:53 AM 78.1 °F - 71.1 °F 79% 29.97 in 10.0 mi SSE 15.0 mph 25.3 mph N/A   Overcast
4:53 AM 78.1 °F - 71.1 °F 79% 29.98 in 10.0 mi South 13.8 mph - N/A   Overcast
5:39 AM 77.0 °F - 71.1 °F 82% 30.02 in 10.0 mi South 15.0 mph - N/A   Scattered Clouds
5:53 AM 77.0 °F - 71.1 °F 82% 30.00 in 10.0 mi South 15.0 mph - N/A   Scattered Clouds
6:53 AM 77.0 °F - 71.1 °F 82% 30.00 in 10.0 mi South 15.0 mph - N/A   Scattered Clouds
7:43 AM 77.0 °F - 72.0 °F 84% 30.04 in 10.0 mi South 10.4 mph - N/A   Mostly Cloudy
7:53 AM 78.1 °F - 72.0 °F 81% 30.02 in 10.0 mi SSE 10.4 mph - N/A   Mostly Cloudy
8:53 AM 79.0 °F - 72.0 °F 79% 30.03 in 10.0 mi South 12.7 mph - N/A   Mostly Cloudy
9:53 AM 81.0 °F 85.2 °F 72.0 °F 74% 30.04 in 10.0 mi SSE 16.1 mph - N/A   Mostly Cloudy
10:53 AM 82.0 °F 86.3 °F 71.1 °F 69% 30.04 in 10.0 mi South 17.3 mph 20.7 mph N/A   Mostly Cloudy
11:53 AM 86.0 °F 91.5 °F 71.1 °F 61% 30.03 in 10.0 mi South 13.8 mph 24.2 mph N/A   Mostly Cloudy
12:53 PM 88.0 °F 92.9 °F 70.0 °F 55% 30.01 in 10.0 mi SSE 13.8 mph - N/A   Scattered Clouds
1:53 PM 90.0 °F 94.5 °F 69.1 °F 50% 29.98 in 10.0 mi South 17.3 mph 25.3 mph N/A   Mostly Cloudy
2:53 PM 93.0 °F 97.4 °F 68.0 °F 44% 29.96 in 10.0 mi South 18.4 mph 23.0 mph N/A   Mostly Cloudy
3:53 PM 93.0 °F 96.4 °F 66.9 °F 42% 29.93 in 10.0 mi SSE 16.1 mph - N/A   Mostly Cloudy
4:53 PM 93.0 °F 96.4 °F 66.9 °F 42% 29.91 in 10.0 mi SSE 20.7 mph 24.2 mph N/A   Mostly Cloudy
5:53 PM 91.0 °F 93.8 °F 66.0 °F 44% 29.90 in 10.0 mi SSE 17.3 mph 26.5 mph N/A   Partly Cloudy
6:53 PM 90.0 °F 91.3 °F 64.0 °F 42% 29.89 in 10.0 mi SSE 19.6 mph 25.3 mph N/A   Partly Cloudy
7:53 PM 87.1 °F 89.9 °F 66.9 °F 51% 29.91 in 10.0 mi SE 15.0 mph - N/A   Partly Cloudy
8:53 PM 86.0 °F 89.4 °F 68.0 °F 55% 29.92 in 10.0 mi SE 17.3 mph 25.3 mph N/A   Partly Cloudy
9:53 PM 84.0 °F 86.5 °F 66.9 °F 56% 29.94 in 10.0 mi SSE 21.9 mph 26.5 mph N/A   Partly Cloudy
10:53 PM 84.0 °F 87.0 °F 68.0 °F 58% 29.94 in 10.0 mi SSE 15.0 mph 25.3 mph N/A   Partly Cloudy
11:53 PM 82.0 °F 84.9 °F 68.0 °F 62% 29.95 in 10.0 mi SSE 17.3 mph 25.3 mph N/A   Clear